CZ-4B R/B (46481 NORAD) Tracking and Keplerian Element Data

This shows tracking and keplerian element data for the satellite.

Feedback or suggestion? Click here.




ElementValue
Catalog46481
NameCZ-4B R/B
Epoch Orbit452
Epoch Day301.1055533
Epoch Year2020
RAAN17.463
Inclination97.9567
Eccentricity0.0162466
Argument of Perigee275.8843
Mean Anonmoly82.3886
Mean Motion15.08310019
Decay Rate1.376E-05
L11 46481U 20067D 20301.10555330 .00001376 00000-0 69621-4 0 9991
L22 46481 97.9567 17.4630 0162466 275.8843 82.3886 15.08310019 4525

Live tracking and technical data element details for CZ-4B R/B (NORAD 46481). CZ-4B R/B can be tracked NOW for your location showing map with azimuth and elevation plus other details from your city location.

Track the satellite on the map from your city or location and see movement details for azimuth, elevation, latitude, longitude, range, height, and movement on the map or in text.







IsCatalogInMostPopularTable: catalog: 46481, numindb: 4
Update: records affected: 1



GetName: 46481 CZ-4B R/B

Hit Count: updated at: Sat, 31 Oct 2020 10:36:26 GMT